Weather History for Waupaca, WI

Change the Weather History Date:

Sunday, May 26, 2013

  Actual Average Record
Temperature  
Mean Temperature 53 °F -  
Max Temperature 68 °F 70 °F 90 °F (1967)
Min Temperature 38 °F 47 °F 32 °F (1969)
Degree Days  
Heating Degree Days 12    
Growing Degree Days 3 (Base 50)    
Moisture  
Dew Point 37 °F    
Average Humidity 55    
Maximum Humidity 93    
Minimum Humidity 30    
Precipitation  
Precipitation 0.00 in - - ()
Sea Level Pressure  
Sea Level Pressure 30.27 in    
Wind  
Wind Speed 5 mph (East)    
Max Wind Speed 17 mph    
Max Gust Speed 21 mph    
Visibility 10 miles    
Events      
Averages and records for this station are not official NWS values.
T = Trace of Precipitation, MM = Missing Value Source: NWS Daily Summary

Daily Weather History Graph

Daily Weather History Graph

Search for Another Location

Airport:

Trip Planner

Search our weather history database for the weather conditions in past years. The results will help you decide how hot, cold, wet, or windy it might be!

Date:

Astronomy

May. 26, 2013 Rise Set
Actual Time 5:18 AM CDT 8:28 PM CDT
Civil Twilight 4:43 AM CDT 9:03 PM CDT
Nautical Twilight 3:58 AM CDT 9:48 PM CDT
Astronomical Twilight 3:03 AM CDT 10:43 PM CDT
Moon 10:14 PM CDT (5/26) 6:48 AM CDT (5/26)
Length of Visible Light 16h 19m
Length of Day
15h 09m
Waning Gibbous, 96% of the Moon is Illuminated
May 26
Waning Gibbous
May 31
Last Quarter
Jun 8
New
Jun 16
First Quarter
Jun 23
Full

Hourly Weather History & Observations

Time (CDT) Temp. Windchill Dew Point Humidity Pressure Visibility Wind Dir Wind Speed Gust Speed Precip Events Conditions
12:15 AM 44.8 °F - 40.6 °F 85% 30.33 in 10.0 mi Calm Calm - N/A   Clear
12:35 AM 44.1 °F - 39.2 °F 83% 30.31 in 10.0 mi Calm Calm - N/A   Clear
12:55 AM 44.2 °F - 40.5 °F 87% 30.32 in 10.0 mi Calm Calm - N/A   Clear
1:15 AM 43.3 °F - 39.7 °F 87% 30.31 in 10.0 mi Calm Calm - N/A   Clear
1:35 AM 42.3 °F 40.5 °F 37.8 °F 84% 30.31 in 10.0 mi North 3.5 mph - N/A   Clear
1:55 AM 41.5 °F 38.6 °F 38.5 °F 89% 30.32 in 10.0 mi NNW 4.6 mph - N/A   Clear
2:15 AM 41.5 °F - 38.5 °F 89% 30.31 in 10.0 mi Calm Calm - N/A   Clear
2:35 AM 41.5 °F - 38.5 °F 89% 30.31 in 10.0 mi Calm Calm - N/A   Clear
2:55 AM 40.3 °F - 37.2 °F 89% 30.31 in 10.0 mi Calm Calm - N/A   Clear
3:15 AM 40.1 °F - 36.7 °F 88% 30.31 in 10.0 mi Calm Calm - N/A   Clear
3:35 AM 39.4 °F - 36.1 °F 88% 30.31 in 10.0 mi Calm Calm - N/A   Clear
3:55 AM 39.7 °F - 37.0 °F 90% 30.30 in 10.0 mi Calm Calm - N/A   Clear
4:15 AM 39.9 °F - 37.6 °F 91% 30.30 in 10.0 mi Calm Calm - N/A   Clear
4:35 AM 38.7 °F 36.3 °F 36.3 °F 91% 30.30 in 10.0 mi North 3.5 mph - N/A   Clear
4:55 AM 39.4 °F - 37.0 °F 91% 30.31 in 10.0 mi Calm Calm - N/A   Clear
5:15 AM 38.5 °F - 36.1 °F 91% 30.31 in 10.0 mi Calm Calm - N/A   Clear
5:35 AM 38.5 °F 34.1 °F 36.3 °F 92% 30.30 in 10.0 mi NNE 5.8 mph - N/A   Clear
5:55 AM 41.2 °F - 39.2 °F 93% 30.32 in 10.0 mi Calm Calm - N/A   Clear
6:15 AM 41.9 °F - 39.4 °F 91% 30.32 in 10.0 mi Calm Calm - N/A   Clear
6:35 AM 43.3 °F - 40.1 °F 88% 30.33 in 10.0 mi Calm Calm - N/A   Clear
6:55 AM 45.5 °F - 40.3 °F 82% 30.33 in 10.0 mi Calm Calm - N/A   Clear
7:15 AM 48.2 °F - 39.2 °F 71% 30.33 in 10.0 mi ENE 4.6 mph - N/A   Clear
7:35 AM 50.7 °F - 37.0 °F 59% 30.33 in 10.0 mi East 8.1 mph - N/A   Clear
7:55 AM 51.6 °F - 37.4 °F 58% 30.34 in 10.0 mi ENE 5.8 mph - N/A   Clear
8:15 AM 52.7 °F - 37.9 °F 57% 30.34 in 10.0 mi East 4.6 mph - N/A   Clear
8:35 AM 54.5 °F - 37.0 °F 52% 30.33 in 10.0 mi East 8.1 mph - N/A   Clear
8:55 AM 56.3 °F - 38.1 °F 51% 30.32 in 10.0 mi East 8.1 mph - N/A   Clear
9:15 AM 58.3 °F - 39.0 °F 49% 30.32 in 10.0 mi East 6.9 mph - N/A   Clear
9:35 AM 58.5 °F - 38.8 °F 48% 30.32 in 10.0 mi East 6.9 mph - N/A   Clear
9:55 AM 59.4 °F - 38.8 °F 47% 30.32 in 10.0 mi East 10.4 mph - N/A   Clear
10:15 AM 60.3 °F - 39.0 °F 45% 30.31 in 10.0 mi ENE 10.4 mph - N/A   Clear
10:35 AM 62.1 °F - 39.6 °F 44% 30.31 in 10.0 mi East 11.5 mph - N/A   Clear
10:55 AM 64.0 °F - 38.5 °F 39% 30.32 in 10.0 mi East 9.2 mph - N/A   Clear
11:15 AM 64.0 °F - 38.3 °F 39% 30.32 in 10.0 mi SE 10.4 mph - N/A   Clear
11:35 AM 63.1 °F - 38.8 °F 41% 30.31 in 10.0 mi East 10.4 mph - N/A   Clear
11:55 AM 65.1 °F - 40.8 °F 41% 30.31 in 10.0 mi East 10.4 mph - N/A   Clear
12:15 PM 65.7 °F - 39.6 °F 38% 30.30 in 10.0 mi ESE 12.7 mph 16.1 mph N/A   Clear
12:35 PM 66.0 °F - 39.2 °F 37% 30.30 in 10.0 mi East 13.8 mph 17.3 mph N/A   Clear
12:55 PM 66.4 °F - 39.6 °F 37% 30.29 in 10.0 mi East 13.8 mph 17.3 mph N/A   Clear
1:15 PM 67.5 °F - 38.3 °F 34% 30.28 in 10.0 mi East 11.5 mph 18.4 mph N/A   Clear
1:35 PM 67.5 °F - 37.6 °F 33% 30.27 in 10.0 mi SE 12.7 mph 18.4 mph N/A   Clear
1:55 PM 66.6 °F - 37.2 °F 34% 30.27 in 10.0 mi ESE 17.3 mph - N/A   Clear
2:15 PM 68.0 °F - 36.1 °F 31% 30.26 in 10.0 mi SE 16.1 mph - N/A   Clear
2:35 PM 67.6 °F - 36.1 °F 31% 30.26 in 10.0 mi ESE 11.5 mph - N/A   Clear
2:55 PM 67.5 °F - 36.0 °F 31% 30.25 in 10.0 mi ESE 12.7 mph 20.7 mph N/A   Clear
3:15 PM 68.2 °F - 37.2 °F 32% 30.25 in 10.0 mi ESE 12.7 mph 19.6 mph N/A   Clear
3:35 PM 67.5 °F - 34.5 °F 30% 30.24 in 10.0 mi SE 8.1 mph - N/A   Clear
3:55 PM 66.2 °F - 35.4 °F 32% 30.24 in 10.0 mi SE 10.4 mph - N/A   Clear
4:15 PM 66.6 °F - 36.3 °F 33% 30.24 in 10.0 mi SE 9.2 mph - N/A   Clear
4:35 PM 66.2 °F - 36.9 °F 34% 30.23 in 10.0 mi ESE 10.4 mph - N/A   Clear
4:55 PM 65.8 °F - 37.6 °F 35% 30.22 in 10.0 mi ESE 11.5 mph - N/A   Clear
5:15 PM 65.3 °F - 37.6 °F 36% 30.21 in 10.0 mi ESE 10.4 mph - N/A   Scattered Clouds
5:35 PM 64.6 °F - 37.2 °F 36% 30.21 in 10.0 mi ESE 11.5 mph - N/A   Clear
5:55 PM 64.4 °F - 35.4 °F 34% 30.21 in 10.0 mi ESE 13.8 mph - N/A   Clear
6:15 PM 64.0 °F - 34.5 °F 33% 30.20 in 10.0 mi ESE 11.5 mph - N/A   Clear
6:35 PM 63.9 °F - 33.8 °F 33% 30.19 in 10.0 mi ESE 11.5 mph 18.4 mph N/A   Mostly Cloudy
6:55 PM 63.0 °F - 34.0 °F 34% 30.19 in 10.0 mi ESE 10.4 mph - N/A   Scattered Clouds
7:15 PM 62.2 °F - 34.5 °F 36% 30.19 in 10.0 mi ESE 11.5 mph 16.1 mph N/A   Clear
7:35 PM 62.1 °F - 33.8 °F 35% 30.20 in 10.0 mi ESE 10.4 mph - N/A   Scattered Clouds
7:55 PM 61.7 °F - 34.3 °F 36% 30.20 in 10.0 mi ESE 9.2 mph - N/A   Overcast
8:15 PM 61.2 °F - 35.1 °F 38% 30.21 in 10.0 mi East 4.6 mph - N/A   Overcast
8:35 PM 60.8 °F - 35.1 °F 38% 30.21 in 10.0 mi ESE 5.8 mph - N/A   Overcast
8:55 PM 60.3 °F - 36.1 °F 41% 30.21 in 10.0 mi ESE 4.6 mph - N/A   Overcast
9:15 PM 59.5 °F - 37.0 °F 43% 30.21 in 10.0 mi ESE 4.6 mph - N/A   Overcast
9:35 PM 59.0 °F - 37.8 °F 45% 30.21 in 10.0 mi East 3.5 mph - N/A   Overcast
9:55 PM 58.6 °F - 38.5 °F 47% 30.21 in 10.0 mi Calm Calm - N/A   Overcast
10:15 PM 58.5 °F - 38.5 °F 47% 30.20 in 10.0 mi ENE 4.6 mph - N/A   Overcast
10:59 PM 57.2 °F - 37.4 °F 48% 30.20 in 10.0 mi East 6.9 mph - N/A   Overcast
11:19 PM 57.2 °F - 37.4 °F 48% 30.21 in 10.0 mi East 8.1 mph - N/A   Overcast
11:35 PM 57.4 °F - 38.1 °F 49% 30.20 in 10.0 mi East 9.2 mph - N/A   Overcast
11:55 PM 56.8 °F - 37.4 °F 48% 30.20 in 10.0 mi East 6.9 mph - N/A   Overcast